Miscellaneous Local Product
Issued by NWS Hastings, NE

Home | Current Version | Previous Version | Graphics & Text | Print | Product List | Glossary On
Versions: 1 2 3 4 5 6 7 8 9 10 11 12 13 14 15 16 17 18 19 20 21 22 23 24 25 26 27 28 29 30 31 32 33 34 35 36 37 38 39 40 41 42 43 44 45 46 47 48 49 50
823
AXUS43 KGID 221602
MISGRI

GID CWA HOURLY WEATHER ROUNDUP
NATIONAL WEATHER SERVICE HASTINGS NE
1100 AM CDT MON MAY 22 2017

NOTE: "FAIR" INDICATES FEW OR NO CLOUDS BELOW 12,000 FEET WITH NO
SIGNIFICANT WEATHER AND/OR OBSTRUCTIONS TO VISIBILITY.

...SOUTH CENTRAL NEBRASKA...

CITY           SKY/WX    TMP DP  RH WIND       PRES   REMARKS
GRAND ISLAND   CLOUDY    65  49  56 W10       29.98F
HASTINGS       PTSUNNY   65  47  52 W8        30.00F
KEARNEY        CLOUDY    64  45  48 NW10      30.00F
ORD            SUNNY     65  45  48 NW13      29.95F
YORK           MOSUNNY   64  46  52 W12       29.97F
AURORA         CLOUDY    65  46  51 W10       29.97F
LEXINGTON      SUNNY     64  49  59 W9        30.02F
HOLDREGE       CLOUDY    64  44  49 NW3       30.01F
HEBRON         CLOUDY    59  54  82 SW10      30.03R

...NEBRASKA PANHANDLE...

CITY           SKY/WX    TMP DP  RH WIND       PRES   REMARKS
CHADRON        CLOUDY    55  44  66 W10       30.06S
ALLIANCE       PTSUNNY   57  41  55 N13       30.06S
SCOTTSBLUFF    MOSUNNY   54  42  64 NW13      30.10S
SIDNEY         SUNNY     60  41  49 NW17      30.09F

...WESTERN AND NORTH CENTRAL NEBRASKA...

CITY           SKY/WX    TMP DP  RH WIND       PRES   REMARKS
VALENTINE      LGT RAIN  51  46  83 W10       30.02R
AINSWORTH      LGT RAIN  55  46  72 NW17G26   30.02R
ONEILL         SUNNY     64  44  47 NW20      29.97S
BROKEN BOW     SUNNY     67  46  47 NW18      29.99F
IMPERIAL       SUNNY     65  41  41 NW14      30.06F
NORTH PLATTE   SUNNY     65  49  56 W13       30.02F
MCCOOK         CLOUDY    64  49  57 W10       30.04F

...EASTERN NEBRASKA...

CITY           SKY/WX    TMP DP  RH WIND       PRES   REMARKS
NORFOLK        SUNNY     67  43  41 NW13      29.92F
SO SIOUX CITY  SUNNY     66  52  60 W6        29.90F
TEKAMAH        SUNNY     67  50  54 W14       29.91F
COLUMBUS         N/A    N/A N/A N/A MISG        N/A
ALBION         SUNNY     68  44  42 NW13G20   29.94F
OMAHA EPPLEY   CLOUDY    68  48  48 W8        29.94S
OFFUTT AFB     PTSUNNY   65  51  60 SW9       29.94F
MILLARD        MOSUNNY   67  51  56 W6        29.94F
LINCOLN        PTSUNNY   66  50  56 SW7       29.97F
NEBRASKA CITY  PTSUNNY   62  51  67 W12       29.99R
BEATRICE       LGT RAIN  60  56  85 SW10      30.01R
FALLS CITY     CLOUDY    62  55  77 SW15G23   30.01R

...NORTHERN KANSAS...

CITY           SKY/WX    TMP DP  RH WIND       PRES   REMARKS
GOODLAND       CLOUDY    61  51  70 NW12      30.09F
HILL CITY      CLOUDY    59  53  80 W6        30.06F
NORTON         SUNNY     59  46  63 W7        30.04S
PHILLIPSBURG   MOSUNNY   63  52  67 W6        30.04F
HAYS           LGT RAIN  57  54  89 S5        30.06S
RUSSELL        LGT RAIN  56  55  97 SW7       30.05F
CONCORDIA      HVY RAIN  56  56 100 W5        30.04S FOG
SALINA         CLOUDY    68  58  70 S15       30.04F
TOPEKA         CLOUDY    63  58  83 SW3       30.04F



USA.gov is the U.S. government's official web portal to all federal, state and local government web resources and services.